Regional Weather Roundup
Issued by NWS

Home | Current Version | Previous Version | Text Only | Print | Product List | Glossary On
Versions: 1 2 3 4 5 6 7 8 9 10 11 12 13 14 15 16 17 18 19 20 21 22 23 24 25 26 27 28 29 30 31 32 33 34 35 36 37 38 39 40 41 42 43 44 45 46 47 48 49 50
000
ASUS43 KTOP 011508
RWRKS

WEATHER ROUNDUP FOR KANSAS
NATIONAL WEATHER SERVICE GOODLAND KS
900 AM CST SUN MAR 01 2015

NOTE:  "FAIR" INDICATES FEW OR NO CLOUDS BELOW 12,000 FEET WITH NO
SIGNIFICANT WEATHER AND/OR OBSTRUCTIONS TO VISIBILITY.

KSZ001>006-013>018-027>032-041>047-011600-
NORTHWEST KANSAS

CITY           SKY/WX    TMP DP  RH WIND       PRES   REMARKS
GOODLAND       CLOUDY    22  19  89 W3        30.23R FOG
HAYS           MOSUNNY   19   9  63 CALM      30.34R
HILL CITY      MOSUNNY   18  16  92 CALM      30.33R FOG
RUSSELL        PTSUNNY   20  18  92 W5        30.33R
$$

KSZ061>065-074>080-084>089-011600-
SOUTHWEST KANSAS

CITY           SKY/WX    TMP DP  RH WIND       PRES   REMARKS
DODGE CITY     CLOUDY    21  19  92 CALM      30.32R FOG
ELKHART          N/A     22  18  85 N6          N/A
GARDEN CITY    CLOUDY    21  19  92 CALM      30.28R FOG
GREAT BEND     MOSUNNY   19  14  79 W5        30.35R
LIBERAL        CLOUDY    23  18  80 NE3       30.29R
PRATT          CLOUDY    23  19  86 CALM      30.35R FOG
$$

KSZ066>073-081>083-090>101-011600-
SOUTHEAST KANSAS

CITY           SKY/WX    TMP DP  RH WIND       PRES   REMARKS
CHANUTE        CLOUDY    25  21  85 N5        30.39R
COFFEYVILLE    CLOUDY    27  24  89 N5        30.40R FOG
HUTCHINSON     PTSUNNY   22  18  85 CALM      30.37R FOG
MEDICINE LODGE   N/A     23  21  92 CALM      30.37R
NEWTON         CLOUDY    21  18  86 CALM      30.38R
PARSONS        CLOUDY    27  23  85 NE5       30.40S
WICHITA INTL   CLOUDY    25  21  85 W3        30.39R FOG
WICHITA JABRA  PTSUNNY   23  21  92 MISG      30.37R FOG
WINFIELD       MIX PCPN  24  23  96 NW3       30.40R FOG
$$

KSZ007>012-019>026-033>040-048>060-102>105-011600-
NORTHEAST KANSAS

CITY           SKY/WX    TMP DP  RH WIND       PRES   REMARKS
CONCORDIA      PTSUNNY   22  18  85 W6        30.36R
EMPORIA        MOSUNNY   23  19  85 N5        30.37R
LAWRENCE       CLOUDY    23  19  85 W3        30.41R
MANHATTAN      MOSUNNY   22  19  89 CALM      30.41R
MARYSVILLE     CLOUDY    23  19  86 W5        30.38R
OLATHE IND     CLOUDY    23  20  88 N5        30.39R
OLATHE EXE     CLOUDY    24  20  84 N3        30.37R
SALINA         MOSUNNY   22  17  81 CALM      30.39R
TOPEKA BILLARD CLOUDY    23  19  85 NW5       30.41R
TOPEKA FORBES  CLOUDY    25  19  78 NW6       30.39R
$$


USA.gov is the U.S. government's official web portal to all federal, state and local government web resources and services.